EWG175 EDDS-LEPA

Flight info

Callsign EWG175
Flight time 1h 48m
Altitude 35000
Route ROTWE5B ROTWE Y126 TUBLO N850 NATOR DCT LUTIX DCT BENOT DCT NEMOS DCT GEVEA DCT INCUS DCT BALSI DCT RETNO DCT TUPOX DCT MTG DCT DIVKO DCT VATIR DCT PIVUS DCT BODEQ DCT VERSO L129 LUNIK
Aircraft A320/M-SDE3FGHIRWY/LB1

Departure

Time 2026-05-06 12:00
Airport Stuttgart Airport (EDDS)

Arrival

Time 2026-05-06 13:49
Airport Palma de Mallorca Airport (LEPA)
Time Latitude Longitude Altitude Speed Heading
2026-05-06 11:35 48.68792 9.19684 1304 ft 0 kts 164°
2026-05-06 11:52 48.68790 9.19683 1304 ft 1 kts 178°
2026-05-06 11:52 48.68762 9.19697 1302 ft 7 kts 164°
2026-05-06 11:53 48.68741 9.19765 1299 ft 11 kts 73°
2026-05-06 11:53 48.68766 9.19883 1296 ft 12 kts 66°
2026-05-06 11:53 48.68825 9.19995 1295 ft 15 kts 58°
2026-05-06 11:53 48.68861 9.20150 1292 ft 17 kts 74°
2026-05-06 11:54 48.68898 9.20342 1287 ft 21 kts 75°
2026-05-06 11:54 48.68936 9.20548 1283 ft 18 kts 74°
2026-05-06 11:54 48.68974 9.20752 1277 ft 22 kts 73°
2026-05-06 11:54 48.69020 9.20992 1273 ft 25 kts 73°
2026-05-06 11:55 48.69068 9.21240 1269 ft 26 kts 74°
2026-05-06 11:55 48.69107 9.21446 1267 ft 18 kts 75°
2026-05-06 11:55 48.69143 9.21643 1257 ft 21 kts 75°
2026-05-06 11:55 48.69184 9.21857 1257 ft 22 kts 74°
2026-05-06 11:56 48.69222 9.22054 1255 ft 20 kts 74°
2026-05-06 11:56 48.69263 9.22269 1250 ft 23 kts 73°
2026-05-06 11:56 48.69310 9.22515 1243 ft 26 kts 74°
2026-05-06 11:56 48.69357 9.22756 1231 ft 23 kts 73°
2026-05-06 11:57 48.69403 9.23005 1225 ft 26 kts 75°
2026-05-06 11:57 48.69454 9.23273 1220 ft 25 kts 74°
2026-05-06 11:57 48.69501 9.23526 1215 ft 22 kts 74°
2026-05-06 11:57 48.69547 9.23768 1210 ft 25 kts 73°
2026-05-06 11:58 48.69589 9.23997 1205 ft 23 kts 74°
2026-05-06 11:58 48.69594 9.24193 1198 ft 17 kts 129°
2026-05-06 11:58 48.69525 9.24305 1192 ft 14 kts 165°
2026-05-06 11:58 48.69423 9.24350 1190 ft 13 kts 163°
2026-05-06 11:59 48.69393 9.24340 1190 ft 3 kts 246°
2026-05-06 11:59 48.69392 9.24331 1191 ft 0 kts 256°
2026-05-06 11:59 48.69354 9.24126 1195 ft 55 kts 255°
2026-05-06 11:59 48.69185 9.23237 1212 ft 118 kts 254°
2026-05-06 12:00 48.68907 9.21781 1263 ft 166 kts 254°
2026-05-06 12:00 48.68610 9.20080 1877 ft 167 kts 257°
2026-05-06 12:00 48.68333 9.18378 2577 ft 170 kts 256°
2026-05-06 12:00 48.67999 9.16518 2807 ft 194 kts 255°
2026-05-06 12:01 48.67616 9.14469 3126 ft 211 kts 255°
2026-05-06 12:01 48.67195 9.12242 3474 ft 233 kts 254°
2026-05-06 12:01 48.66720 9.09764 3863 ft 257 kts 254°
2026-05-06 12:01 48.66216 9.07161 4785 ft 259 kts 254°
2026-05-06 12:02 48.65706 9.04504 5582 ft 266 kts 253°
2026-05-06 12:02 48.65185 9.01795 6376 ft 271 kts 253°
2026-05-06 12:02 48.64649 8.99049 7154 ft 275 kts 253°
2026-05-06 12:02 48.64096 8.96266 7952 ft 277 kts 252°
2026-05-06 12:03 48.63535 8.93470 8798 ft 279 kts 252°
2026-05-06 12:03 48.62969 8.90637 9618 ft 283 kts 252°
2026-05-06 12:03 48.62384 8.87767 10244 ft 294 kts 249°
2026-05-06 12:03 48.61500 8.84854 10506 ft 316 kts 238°
2026-05-06 12:04 48.60194 8.82048 10709 ft 338 kts 228°
2026-05-06 12:04 48.58567 8.79376 11077 ft 350 kts 226°
2026-05-06 12:04 48.56904 8.76657 11720 ft 355 kts 226°
2026-05-06 12:04 48.55228 8.73904 12438 ft 357 kts 226°
2026-05-06 12:05 48.53544 8.71134 13159 ft 360 kts 226°
2026-05-06 12:05 48.52012 8.68124 13816 ft 364 kts 236°
2026-05-06 12:05 48.50877 8.64684 14402 ft 370 kts 248°
2026-05-06 12:05 48.50146 8.60945 14984 ft 374 kts 253°
2026-05-06 12:06 48.49467 8.57145 15548 ft 377 kts 253°
2026-05-06 12:06 48.48768 8.53315 16103 ft 380 kts 252°
2026-05-06 12:06 48.47827 8.49597 16649 ft 381 kts 241°
2026-05-06 12:06 48.46401 8.46236 17180 ft 382 kts 230°
2026-05-06 12:07 48.44551 8.43375 17729 ft 382 kts 218°
2026-05-06 12:07 48.42356 8.41120 18247 ft 384 kts 207°
2026-05-06 12:07 48.39907 8.39509 18718 ft 386 kts 198°
2026-05-06 12:07 48.37296 8.38524 19197 ft 388 kts 192°
2026-05-06 12:08 48.34643 8.37691 19660 ft 391 kts 192°
2026-05-06 12:08 48.31976 8.36851 20123 ft 393 kts 192°
2026-05-06 12:08 48.29294 8.36004 20577 ft 395 kts 192°
2026-05-06 12:08 48.26591 8.35149 21017 ft 398 kts 192°
2026-05-06 12:09 48.23872 8.34291 21441 ft 401 kts 192°
2026-05-06 12:09 48.21135 8.33427 21873 ft 403 kts 192°
2026-05-06 12:09 48.18397 8.32448 22278 ft 406 kts 198°
2026-05-06 12:09 48.15777 8.30833 22685 ft 409 kts 207°
2026-05-06 12:10 48.13339 8.28598 23094 ft 412 kts 212°
2026-05-06 12:10 48.10927 8.26253 23500 ft 415 kts 212°
2026-05-06 12:10 48.08501 8.23908 23862 ft 416 kts 212°
2026-05-06 12:10 48.06029 8.21524 24231 ft 417 kts 212°
2026-05-06 12:11 48.03620 8.19205 24615 ft 418 kts 212°
2026-05-06 12:11 48.01138 8.16819 25051 ft 420 kts 212°
2026-05-06 12:11 47.98712 8.14490 25421 ft 420 kts 211°
2026-05-06 12:11 47.96251 8.12131 25764 ft 421 kts 211°
2026-05-06 12:12 47.93781 8.09766 26107 ft 422 kts 211°
2026-05-06 12:12 47.91278 8.07370 26486 ft 423 kts 211°
2026-05-06 12:12 47.88828 8.05031 26886 ft 424 kts 211°
2026-05-06 12:12 47.86309 8.02627 27275 ft 425 kts 211°
2026-05-06 12:13 47.83847 8.00279 27644 ft 426 kts 211°
2026-05-06 12:13 47.81315 7.97866 28032 ft 427 kts 211°
2026-05-06 12:13 47.78842 7.95510 28409 ft 427 kts 211°
2026-05-06 12:13 47.76348 7.93135 28892 ft 425 kts 211°
2026-05-06 12:14 47.73832 7.90743 29341 ft 422 kts 211°
2026-05-06 12:14 47.71373 7.88408 29886 ft 417 kts 211°
2026-05-06 12:14 47.68943 7.86100 30363 ft 413 kts 211°
2026-05-06 12:14 47.66525 7.83810 30813 ft 411 kts 211°
2026-05-06 12:15 47.64120 7.81543 31212 ft 408 kts 211°
2026-05-06 12:15 47.61726 7.79292 31596 ft 406 kts 211°
2026-05-06 12:15 47.59349 7.77055 31983 ft 404 kts 211°
2026-05-06 12:15 47.56982 7.74827 32354 ft 402 kts 211°
2026-05-06 12:16 47.54622 7.72608 32716 ft 400 kts 211°
2026-05-06 12:16 47.52281 7.70408 33154 ft 398 kts 211°
2026-05-06 12:16 47.49952 7.68222 33615 ft 395 kts 212°
2026-05-06 12:16 47.47640 7.66050 34001 ft 393 kts 212°
2026-05-06 12:17 47.45333 7.63886 34255 ft 392 kts 212°
2026-05-06 12:17 47.43026 7.61723 34459 ft 393 kts 212°
2026-05-06 12:17 47.40712 7.59558 34635 ft 394 kts 212°
2026-05-06 12:17 47.38394 7.57396 34809 ft 396 kts 212°
2026-05-06 12:18 47.36060 7.55222 34986 ft 397 kts 212°
2026-05-06 12:18 47.33727 7.53051 35139 ft 398 kts 212°
2026-05-06 12:18 47.31381 7.50870 35322 ft 399 kts 212°
2026-05-06 12:18 47.29034 7.48687 35541 ft 400 kts 212°
2026-05-06 12:19 47.26679 7.46496 35758 ft 401 kts 212°
2026-05-06 12:19 47.24316 7.44297 35873 ft 403 kts 212°
2026-05-06 12:19 47.19528 7.39858 35893 ft 409 kts 212°
2026-05-06 12:20 47.15148 7.34531 35893 ft 412 kts 228°
2026-05-06 12:20 47.12171 7.29047 35892 ft 414 kts 230°
2026-05-06 12:21 47.08580 7.22442 35882 ft 414 kts 229°
2026-05-06 12:21 47.04982 7.15857 35883 ft 414 kts 229°
2026-05-06 12:22 47.01388 7.09267 35882 ft 413 kts 229°
2026-05-06 12:22 46.97799 7.02690 35889 ft 413 kts 229°
2026-05-06 12:23 46.94202 6.96126 35909 ft 413 kts 230°
2026-05-06 12:23 46.90442 6.89780 35886 ft 412 kts 220°
2026-05-06 12:24 46.86005 6.84457 35878 ft 413 kts 218°
2026-05-06 12:24 46.81543 6.79153 35875 ft 414 kts 218°
2026-05-06 12:25 46.77076 6.73841 35869 ft 414 kts 219°
2026-05-06 12:25 46.72608 6.68533 35871 ft 414 kts 219°
2026-05-06 12:26 46.68138 6.63245 35882 ft 414 kts 218°
2026-05-06 12:26 46.63669 6.57972 35887 ft 414 kts 218°
2026-05-06 12:27 46.59202 6.52705 35895 ft 414 kts 218°
2026-05-06 12:27 46.54727 6.47439 35900 ft 414 kts 218°
2026-05-06 12:28 46.50249 6.42179 35908 ft 415 kts 218°
2026-05-06 12:28 46.45746 6.36913 35897 ft 416 kts 218°
2026-05-06 12:29 46.41232 6.31644 35894 ft 417 kts 218°
2026-05-06 12:29 46.36704 6.26368 35918 ft 418 kts 218°
2026-05-06 12:30 46.32145 6.21065 35934 ft 418 kts 218°
2026-05-06 12:30 46.27564 6.15887 35941 ft 418 kts 213°
2026-05-06 12:31 46.22247 6.12583 35940 ft 420 kts 194°
2026-05-06 12:31 46.16507 6.11256 35937 ft 421 kts 191°
2026-05-06 12:32 46.10718 6.09965 35935 ft 421 kts 191°
2026-05-06 12:32 46.04927 6.08674 35940 ft 421 kts 191°
2026-05-06 12:33 45.99100 6.07382 35927 ft 421 kts 191°
2026-05-06 12:33 45.93311 6.06099 35943 ft 421 kts 191°
2026-05-06 12:34 45.87530 6.04834 35956 ft 420 kts 191°
2026-05-06 12:34 45.81753 6.03570 35958 ft 420 kts 191°
2026-05-06 12:35 45.75979 6.02294 35952 ft 420 kts 191°
2026-05-06 12:35 45.70207 6.01020 35978 ft 420 kts 191°
2026-05-06 12:36 45.64439 5.99755 35985 ft 420 kts 191°
2026-05-06 12:36 45.58672 5.98476 35956 ft 419 kts 192°
2026-05-06 12:37 45.52907 5.97200 35956 ft 419 kts 192°
2026-05-06 12:37 45.47156 5.95927 35953 ft 418 kts 192°
2026-05-06 12:38 45.41465 5.94292 35934 ft 417 kts 195°
2026-05-06 12:38 45.35819 5.92413 35946 ft 416 kts 195°
2026-05-06 12:39 45.30181 5.90568 35946 ft 416 kts 195°
2026-05-06 12:39 45.24525 5.88801 35946 ft 416 kts 195°
2026-05-06 12:40 45.18874 5.87070 35942 ft 416 kts 195°
2026-05-06 12:40 45.13227 5.85332 35942 ft 415 kts 195°
2026-05-06 12:41 45.07586 5.83585 35938 ft 415 kts 195°
2026-05-06 12:41 45.01947 5.81836 35931 ft 414 kts 195°
2026-05-06 12:42 44.96318 5.80097 35937 ft 414 kts 195°
2026-05-06 12:42 44.90698 5.78374 35936 ft 413 kts 195°
2026-05-06 12:43 44.85082 5.76661 35928 ft 413 kts 195°
2026-05-06 12:43 44.79479 5.74947 35933 ft 412 kts 196°
2026-05-06 12:44 44.73886 5.73235 35934 ft 411 kts 196°
2026-05-06 12:44 44.68300 5.71530 35929 ft 411 kts 195°
2026-05-06 12:45 44.62710 5.69825 35931 ft 411 kts 195°
2026-05-06 12:46 44.54302 5.67275 35907 ft 413 kts 195°
2026-05-06 12:46 44.48680 5.65581 35906 ft 414 kts 195°
2026-05-06 12:47 44.43053 5.63874 35901 ft 414 kts 195°
2026-05-06 12:47 44.37456 5.62023 35913 ft 411 kts 202°
2026-05-06 12:48 44.32134 5.59133 35916 ft 410 kts 204°
2026-05-06 12:48 44.26819 5.56217 35897 ft 410 kts 204°
2026-05-06 12:49 44.21508 5.53302 35911 ft 410 kts 204°
2026-05-06 12:49 44.16195 5.50414 35916 ft 410 kts 204°
2026-05-06 12:50 44.10883 5.47532 35923 ft 409 kts 204°
2026-05-06 12:50 44.05586 5.44645 35912 ft 409 kts 204°
2026-05-06 12:51 44.00294 5.41774 35929 ft 408 kts 204°
2026-05-06 12:51 43.95007 5.38912 35931 ft 408 kts 204°
2026-05-06 12:52 43.89731 5.36050 35914 ft 407 kts 204°
2026-05-06 12:52 43.84463 5.33204 35946 ft 406 kts 204°
2026-05-06 12:53 43.79194 5.30366 35923 ft 406 kts 204°
2026-05-06 12:53 43.73921 5.27534 35919 ft 407 kts 204°
2026-05-06 12:54 43.68644 5.24692 35908 ft 407 kts 205°
2026-05-06 12:54 43.63370 5.21861 35920 ft 406 kts 205°
2026-05-06 12:55 43.58099 5.19049 35953 ft 406 kts 205°
2026-05-06 12:55 43.52829 5.16240 35954 ft 406 kts 205°
2026-05-06 12:56 43.47567 5.13444 35950 ft 405 kts 205°
2026-05-06 12:56 43.42314 5.10648 35956 ft 404 kts 205°
2026-05-06 12:57 43.37250 5.07399 35957 ft 399 kts 216°
2026-05-06 12:57 43.32685 5.03079 35950 ft 399 kts 217°
2026-05-06 12:58 43.28118 4.98768 35941 ft 398 kts 217°
2026-05-06 12:58 43.23562 4.94476 35964 ft 397 kts 217°
2026-05-06 12:59 43.18995 4.90196 35950 ft 398 kts 217°
2026-05-06 12:59 43.14428 4.85918 35957 ft 398 kts 217°
2026-05-06 13:00 43.10628 4.82366 35931 ft 398 kts 217°
2026-05-06 13:00 43.06029 4.78083 35938 ft 397 kts 216°
2026-05-06 13:01 43.01234 4.74376 35939 ft 399 kts 212°
2026-05-06 13:01 42.96350 4.70674 35946 ft 399 kts 212°
2026-05-06 13:02 42.91505 4.66989 35937 ft 399 kts 212°
2026-05-06 13:02 42.86660 4.63317 35948 ft 398 kts 212°
2026-05-06 13:03 42.81815 4.59666 35952 ft 398 kts 212°
2026-05-06 13:03 42.76962 4.56017 35969 ft 399 kts 212°
2026-05-06 13:04 42.72102 4.52360 35960 ft 400 kts 212°
2026-05-06 13:04 42.67229 4.48704 35957 ft 400 kts 212°
2026-05-06 13:05 42.62352 4.45053 35956 ft 400 kts 212°
2026-05-06 13:05 42.57472 4.41401 35961 ft 401 kts 212°
2026-05-06 13:06 42.52581 4.37751 35932 ft 401 kts 212°
2026-05-06 13:06 42.47696 4.34112 35953 ft 401 kts 212°
2026-05-06 13:07 42.42809 4.30476 35968 ft 400 kts 212°
2026-05-06 13:07 42.37928 4.26858 35967 ft 400 kts 212°
2026-05-06 13:08 42.33049 4.23244 35968 ft 400 kts 212°
2026-05-06 13:08 42.28174 4.19640 35956 ft 399 kts 212°
2026-05-06 13:09 42.23301 4.16043 35969 ft 399 kts 212°
2026-05-06 13:09 42.18429 4.12451 35966 ft 399 kts 212°
2026-05-06 13:10 42.13556 4.08865 35960 ft 399 kts 212°
2026-05-06 13:10 42.08679 4.05287 35946 ft 399 kts 212°
2026-05-06 13:11 42.03807 4.01718 35952 ft 398 kts 212°
2026-05-06 13:11 41.98940 3.98146 35952 ft 398 kts 212°
2026-05-06 13:12 41.94062 3.94611 35957 ft 399 kts 209°
2026-05-06 13:12 41.88688 3.92507 35931 ft 408 kts 195°
2026-05-06 13:13 41.83093 3.91222 35946 ft 408 kts 195°
2026-05-06 13:13 41.77497 3.89929 35949 ft 408 kts 195°
2026-05-06 13:14 41.71903 3.88637 35950 ft 408 kts 195°
2026-05-06 13:14 41.66304 3.87345 35936 ft 408 kts 195°
2026-05-06 13:15 41.60704 3.86060 35950 ft 408 kts 195°
2026-05-06 13:15 41.55104 3.84777 35956 ft 408 kts 195°
2026-05-06 13:16 41.49501 3.83490 35927 ft 408 kts 195°
2026-05-06 13:16 41.43903 3.82206 35942 ft 408 kts 195°
2026-05-06 13:17 41.38306 3.80924 35957 ft 408 kts 195°
2026-05-06 13:17 41.32703 3.79647 35962 ft 409 kts 195°
2026-05-06 13:18 41.27091 3.78370 35940 ft 409 kts 195°
2026-05-06 13:18 41.21472 3.77087 35948 ft 410 kts 195°
2026-05-06 13:19 41.15857 3.75767 35952 ft 408 kts 199°
2026-05-06 13:19 41.10581 3.73253 35957 ft 402 kts 206°
2026-05-06 13:20 41.05369 3.70554 35930 ft 402 kts 206°
2026-05-06 13:20 41.00152 3.67877 35942 ft 402 kts 206°
2026-05-06 13:21 40.94933 3.65206 35947 ft 402 kts 206°
2026-05-06 13:21 40.89715 3.62530 35952 ft 402 kts 206°
2026-05-06 13:22 40.84494 3.59856 35801 ft 403 kts 206°
2026-05-06 13:22 40.81884 3.58520 35554 ft 402 kts 206°
2026-05-06 13:22 40.79282 3.57190 35305 ft 401 kts 206°
2026-05-06 13:22 40.76677 3.55859 34976 ft 401 kts 206°
2026-05-06 13:23 40.74033 3.54510 34221 ft 403 kts 206°
2026-05-06 13:23 40.71449 3.53194 33354 ft 405 kts 206°
2026-05-06 13:23 40.68783 3.51837 32536 ft 406 kts 206°
2026-05-06 13:23 40.66184 3.50510 31696 ft 406 kts 206°
2026-05-06 13:24 40.63506 3.49143 30803 ft 409 kts 206°
2026-05-06 13:24 40.60845 3.47790 29897 ft 411 kts 206°
2026-05-06 13:24 40.58166 3.46433 28865 ft 413 kts 206°
2026-05-06 13:24 40.55479 3.45074 27868 ft 414 kts 206°
2026-05-06 13:25 40.52787 3.43712 26912 ft 415 kts 205°
2026-05-06 13:25 40.50117 3.42362 26304 ft 408 kts 205°
2026-05-06 13:25 40.47479 3.41030 25636 ft 403 kts 205°
2026-05-06 13:25 40.44802 3.39941 24955 ft 405 kts 197°
2026-05-06 13:26 40.41998 3.39438 24189 ft 410 kts 188°
2026-05-06 13:26 40.39137 3.39514 23491 ft 412 kts 182°
2026-05-06 13:26 40.36281 3.39692 22711 ft 410 kts 183°
2026-05-06 13:26 40.33448 3.39862 22037 ft 406 kts 183°
2026-05-06 13:27 40.30640 3.40026 21380 ft 402 kts 183°
2026-05-06 13:27 40.27857 3.40183 20738 ft 399 kts 183°
2026-05-06 13:27 40.25094 3.40335 20121 ft 396 kts 182°
2026-05-06 13:27 40.22354 3.40484 19529 ft 392 kts 182°
2026-05-06 13:28 40.19640 3.40633 19009 ft 388 kts 182°
2026-05-06 13:28 40.16997 3.40787 18881 ft 373 kts 182°
2026-05-06 13:28 40.14452 3.40939 18760 ft 359 kts 182°
2026-05-06 13:28 40.11999 3.41082 18640 ft 347 kts 182°
2026-05-06 13:29 40.09632 3.41219 18519 ft 335 kts 183°
2026-05-06 13:29 40.07347 3.41349 18395 ft 323 kts 183°
2026-05-06 13:29 40.05121 3.41472 18162 ft 317 kts 183°
2026-05-06 13:29 40.02929 3.41590 18067 ft 315 kts 183°
2026-05-06 13:30 40.00731 3.41706 17579 ft 318 kts 183°
2026-05-06 13:30 39.98533 3.41822 17208 ft 315 kts 183°
2026-05-06 13:30 39.96336 3.41943 16801 ft 314 kts 182°
2026-05-06 13:30 39.94167 3.42067 16457 ft 311 kts 182°
2026-05-06 13:31 39.92016 3.42191 15822 ft 309 kts 182°
2026-05-06 13:31 39.89886 3.42314 15306 ft 304 kts 182°
2026-05-06 13:31 39.87778 3.42433 14862 ft 302 kts 182°
2026-05-06 13:31 39.85680 3.42549 14425 ft 301 kts 182°
2026-05-06 13:32 39.83594 3.42663 13994 ft 301 kts 182°
2026-05-06 13:32 39.81489 3.42775 13542 ft 304 kts 182°
2026-05-06 13:32 39.79399 3.42889 13091 ft 298 kts 182°
2026-05-06 13:32 39.77344 3.43005 12643 ft 295 kts 181°
2026-05-06 13:33 39.75300 3.43122 12201 ft 293 kts 181°
2026-05-06 13:33 39.73229 3.43072 11794 ft 312 kts 189°
2026-05-06 13:33 39.71088 3.42209 11385 ft 337 kts 212°
2026-05-06 13:33 39.69261 3.40230 10977 ft 348 kts 230°
2026-05-06 13:34 39.67882 3.37682 10593 ft 341 kts 243°
2026-05-06 13:34 39.66814 3.34973 10202 ft 333 kts 243°
2026-05-06 13:34 39.65776 3.32334 9955 ft 322 kts 243°
2026-05-06 13:34 39.64784 3.29806 9949 ft 305 kts 243°
2026-05-06 13:35 39.63849 3.27420 9950 ft 289 kts 243°
2026-05-06 13:35 39.62956 3.25139 9954 ft 280 kts 243°
2026-05-06 13:35 39.62077 3.22899 9956 ft 278 kts 243°
2026-05-06 13:35 39.61201 3.20669 9959 ft 278 kts 243°
2026-05-06 13:36 39.60327 3.18436 9955 ft 277 kts 243°
2026-05-06 13:36 39.59456 3.16203 9951 ft 278 kts 243°
2026-05-06 13:36 39.58582 3.13973 9953 ft 278 kts 243°
2026-05-06 13:36 39.57704 3.11747 9955 ft 278 kts 243°
2026-05-06 13:37 39.56825 3.09516 9956 ft 278 kts 243°
2026-05-06 13:37 39.56244 3.08040 9945 ft 278 kts 243°
2026-05-06 13:37 39.55368 3.05810 9860 ft 278 kts 243°
2026-05-06 13:37 39.54493 3.03585 9739 ft 276 kts 244°
2026-05-06 13:38 39.53620 3.01364 9597 ft 277 kts 244°
2026-05-06 13:38 39.52742 2.99137 9463 ft 278 kts 244°
2026-05-06 13:38 39.51861 2.96905 9331 ft 278 kts 244°
2026-05-06 13:38 39.50980 2.94681 9196 ft 277 kts 243°
2026-05-06 13:39 39.50099 2.92458 9073 ft 277 kts 244°
2026-05-06 13:39 39.49221 2.90236 8937 ft 277 kts 244°
2026-05-06 13:39 39.48344 2.88015 8802 ft 277 kts 244°
2026-05-06 13:39 39.47467 2.85797 8672 ft 277 kts 243°
2026-05-06 13:40 39.46297 2.82839 8160 ft 277 kts 243°
2026-05-06 13:40 39.45713 2.81366 7839 ft 278 kts 243°
2026-05-06 13:40 39.44832 2.79144 7485 ft 276 kts 244°
2026-05-06 13:40 39.43961 2.76916 7037 ft 277 kts 246°
2026-05-06 13:41 39.43405 2.74570 6707 ft 272 kts 261°
2026-05-06 13:41 39.43179 2.72150 6157 ft 271 kts 263°
2026-05-06 13:41 39.42964 2.69735 5496 ft 270 kts 263°
2026-05-06 13:41 39.42748 2.67334 4870 ft 268 kts 263°
2026-05-06 13:42 39.42532 2.64972 4426 ft 259 kts 263°
2026-05-06 13:42 39.42327 2.62747 4247 ft 240 kts 263°
2026-05-06 13:42 39.42134 2.60656 4197 ft 232 kts 263°
2026-05-06 13:42 39.41945 2.58593 4148 ft 230 kts 263°
2026-05-06 13:43 39.41756 2.56542 4093 ft 230 kts 263°
2026-05-06 13:43 39.41570 2.54488 4040 ft 230 kts 263°
2026-05-06 13:43 39.41449 2.52427 3984 ft 230 kts 277°
2026-05-06 13:43 39.42101 2.50643 3928 ft 217 kts 319°
2026-05-06 13:44 39.43434 2.49909 3876 ft 204 kts 360°
2026-05-06 13:44 39.44744 2.50398 3692 ft 203 kts 40°
2026-05-06 13:44 39.45579 2.51841 3426 ft 201 kts 59°
2026-05-06 13:44 39.46312 2.53388 3152 ft 202 kts 58°
2026-05-06 13:45 39.47059 2.54955 2899 ft 200 kts 59°
2026-05-06 13:45 39.48474 2.57925 2358 ft 188 kts 59°
2026-05-06 13:45 39.49149 2.59346 2106 ft 183 kts 59°
2026-05-06 13:46 39.49805 2.60724 1861 ft 176 kts 59°
2026-05-06 13:46 39.50424 2.62028 1641 ft 164 kts 59°
2026-05-06 13:46 39.50998 2.63231 1435 ft 151 kts 59°
2026-05-06 13:46 39.51544 2.64385 1207 ft 149 kts 59°
2026-05-06 13:47 39.52083 2.65522 990 ft 147 kts 59°
2026-05-06 13:47 39.52613 2.66642 819 ft 144 kts 59°
2026-05-06 13:47 39.53134 2.67734 666 ft 140 kts 61°
2026-05-06 13:47 39.53642 2.68802 502 ft 138 kts 61°
2026-05-06 13:48 39.54147 2.69861 282 ft 138 kts 60°
2026-05-06 13:48 39.54641 2.70904 93 ft 134 kts 61°
2026-05-06 13:48 39.55089 2.71864 38 ft 107 kts 58°
2026-05-06 13:48 39.55389 2.72491 38 ft 57 kts 58°
2026-05-06 13:49 39.55495 2.72797 38 ft 22 kts 87°
2026-05-06 13:49 39.55498 2.72969 38 ft 18 kts 89°
2026-05-06 13:49 39.55500 2.73099 38 ft 15 kts 89°
2026-05-06 13:49 39.55527 2.73230 38 ft 16 kts 59°
2026-05-06 13:50 39.55584 2.73353 38 ft 16 kts 59°
2026-05-06 13:50 39.55628 2.73471 38 ft 14 kts 90°
2026-05-06 13:50 39.55556 2.73552 36 ft 11 kts 149°
2026-05-06 13:50 39.55502 2.73568 38 ft 7 kts 213°
2026-05-06 13:51 39.55476 2.73517 37 ft 6 kts 238°
2026-05-06 13:51 39.55455 2.73472 38 ft 5 kts 237°
2026-05-06 13:51 39.55408 2.73456 38 ft 8 kts 158°
2026-05-06 13:51 39.55362 2.73491 38 ft 7 kts 148°
2026-05-06 13:52 39.55339 2.73528 38 ft 5 kts 83°
2026-05-06 13:52 39.55359 2.73572 38 ft 4 kts 58°
2026-05-06 13:52 39.55371 2.73596 38 ft 2 kts 58°
2026-05-06 13:52 39.55372 2.73599 38 ft 0 kts 58°